www.srh.weather.gov   
NOAA logo - Click to go to the NOAA homepage   NWS logo
Regional Weather Roundup
Enter Your "City, ST" or zip code   
Current Version              Previous Version:    01  02  03  04  05  06  07  08  09  10  11  12  13  14  15  16  17  18  19  20  21  22  23  24  25  26  27  28  29  30  
   31  32  33  34  35  36  37  38  39  40  41  42  43  44  45  46  47  48  49  50  51  52  53  54  55  56  57  58  59  60  
[Printable]
595
ASUS43 KFGF 160431
RWRFGF
PRAIRIE TO PINES  WEATHER ROUNDUP
NATIONAL WEATHER SERVICE EASTERN NORTH DAKOTA/GRAND FORKS ND
1100 PM CDT TUE APR 15 2014

 **SATELLITE DATA USED TO AUGMENT SKY COVER AT AUTOMATED STATIONS**
 *****  WEATHER ACROSS EASTERN NORTH DAKOTA  *****

CITY           SKY/WX    TMP DP  RH WIND       PRES   REMARKS
GRAND FORKS    CLOUDY    30  14  51 E12       29.98S WCI  20
GRAND FRKS AFB CLOUDY    29  15  56 E9        30.01F WCI  21
GRAND FRKS NWS   N/A     30 N/A N/A E12         N/A  WCI  21
DEVILS LAKE    CLOUDY    27  12  54 E23       29.93S WCI  12
FARGO          CLOUDY    33  13  43 E12       29.97F WCI  24
WAHPETON ARPT  CLOUDY    32  14  47 E15G21    29.95F WCI  22
$$

 ***** WEATHER ACROSS CENTRAL AND WESTERN NORTH DAKOTA  *****

CITY           SKY/WX    TMP DP  RH WIND       PRES   REMARKS
BISMARCK       CLOUDY    30  18  60 E22G28    29.77S WCI  17
MINOT          LGT SNOW  26  22  84 E18G26    29.84R FOG     WCI  13
JAMESTOWN      CLOUDY    28  20  71 E18G26    29.87S WCI  15
MINOT AFB      LGT SNOW  26  24  91 E20G28    29.84R FOG     WCI  13
GARRISON         N/A     29  21  72 E24G32    29.78R WCI  15
WILLISTON      CLOUDY    38  28  67 SE26      29.72R
DICKINSON      MOCLDY    36  21  54 SE18      29.61R
HETTINGER      CLOUDY    38  23  55 E15       29.64R
$$

 *****  OTHER AIRPORT OBSERVATIONS IN OUR AREA  *****

CITY           SKY/WX    TMP DP  RH WIND       PRES   REMARKS
WALHALLA       FAIR      27  16  63 E8        30.05S WCI  18
GRAFTON AIRPOR FAIR      28  16  59 E13       30.04S WCI  18
VALLEY CITY AR NOT AVBL
CANDO          CLOUDY    27  14  59 E18G26    29.95S WCI  13
CAVALIER APRT  FAIR      28  14  54 E12       30.05S WCI  18
GWINNER        CLOUDY    32  16  51 E23       29.89F WCI  19
SHEYENNE NWR     N/A     32  15  49 E15       29.95  WCI  22
ROLLA          MIX PCPN  25  18  74 E17       29.95R WCI  11
 ***** THE ABOVE OBSERVATIONS ARE NON NWS ARE NOT QUALITY
       CONTROLLED AND MAY MIS-REPORT RAIN FOR SNOW...
$$

  *****  WEATHER ACROSS NORTHERN MINNESOTA  *****

CITY           SKY/WX    TMP DP  RH WIND       PRES   REMARKS
FLAG ISLAND    PTCLDY    18   7  62 CALM      30.09S
WARROAD        PTCLDY    18  10  73 E5        30.09S WCI  11
ROSEAU         PTCLDY    25  10  54 E7        30.08S WCI  17
HALLOCK        CLOUDY    28  14  54 E14       30.06S WCI  17
THF RVR FALLS  CLOUDY    27   9  46 E10       30.04F WCI  17
BAUDETTE       PTCLDY    20   6  55 NE5       30.09R WCI  13
WASKISH        PTCLDY    23   9  54 NE6       30.07S WCI  16
CROOKSTON      CLOUDY    30  12  47 E10G17    30.03F WCI  21
$$
  *****  WEATHER ACROSS CENTRAL AND WEST MINNESOTA  *****

CITY           SKY/WX    TMP DP  RH WIND       PRES   REMARKS
FOSSTON        CLOUDY    27   9  46 E7        30.02F WCI  19
BEMIDJI        CLOUDY    26   6  43 E6        30.03S WCI  19
PARK RAPIDS    CLOUDY    29   5  36 E7        30.01S WCI  22
ELBOW LAKE     CLOUDY    32  14  47 E16       29.95F WCI  21
WADENA         CLOUDY    28  10  47 E9        30.00S WCI  20
DETROIT LAKES  CLOUDY    32   9  37 E9        29.99S WCI  24
MOORHEAD       NOT AVBL
FERGUS FALLS   CLOUDY    32   9  37 E15G21    29.95S WCI  22
MORRIS MN      CLOUDY    34  12  40 E20       29.92F WCI  22
STAPLES        CLOUDY    28   5  37 E5        30.02S WCI  23
$$
  *****  WEATHER ELSEWHERE ACROSS MINNESOTA  *****

CITY           SKY/WX    TMP DP  RH WIND       PRES   REMARKS
DULUTH         CLEAR     26   4  38 CALM      30.08R
INTRNTL FALLS  CLEAR     17  10  74 CALM      30.09R
ELY            CLEAR     14   7  73 CALM      30.09R
CLOQUET        CLEAR     23   5  46 CALM      30.09R
WHEATON        CLOUDY    36  18  48 E20G25    29.94F
BRAINERD       CLOUDY    32   5  32 VRB3      30.05F
HIBBING        PTCLDY    19   7  59 CALM      30.07R
ALEXANDRIA     CLOUDY    31  12  45 E14       29.98S WCI  21
SAINT CLOUD    CLOUDY    33   7  33 E6        30.04F
MINNEAPOLIS    CLOUDY    34  13  41 SE10      30.07F
$$

  *****  WEATHER ACROSS SOUTH DAKOTA  *****

CITY           SKY/WX    TMP DP  RH WIND       PRES   REMARKS
SIOUX FALLS    CLOUDY    40  25  55 SE17G23   29.78F
BROOKINGS      NOT AVBL
WATERTOWN      CLOUDY    34  20  56 E15G25    29.79F WCI  24
HURON          CLOUDY    43  25  49 SE18G25   29.67F
SISSETON         N/A     33  14  45 SE18      29.88F WCI  22
ABERDEEN       CLOUDY    33  16  49 E20       29.78S WCI  21
MITCHELL       CLOUDY    45  27  49 SE25G33   29.68F
PIERRE         CLOUDY    50  30  46 SE17      29.53S
MOBRIDGE       CLOUDY    39  22  50 E32G40    29.62S
RAPID CITY     CLOUDY    52  33  48 N25G33    29.56R
$$

  *****  SOME WEATHER IN NEARBY STATES *****

CITY           SKY/WX    TMP DP  RH WIND       PRES   REMARKS
GLASGOW MT     MOCLDY    39  21  48 N12       29.68R
GREAT FALLS MT CLOUDY    39  33  79 NW9       29.84R
CHEYENNE WY    CLOUDY    48  20  32 W16       29.70F
SCOTTSBLUFF NE CLOUDY    60  23  24 W20G28    29.61S
OMAHA NE       PTCLDY    46  30  53 SE21      29.86F
DES MOINES IA  PTCLDY    41  23  48 SE13      30.01F
DAVENPORT IA   CLEAR     31  17  56 E7        30.16S WCI  24
CHICAGO IL     CLEAR     31  19  61 S5        30.19S
EAU CLAIRE WI  PTCLDY    29  12  49 CALM      30.12R
LA CROSSE WI   CLOUDY    32  18  56 SE3       30.14S
$$

  *****  SOME NATIONAL WEATHER *****

CITY           SKY/WX    TMP DP  RH WIND       PRES   REMARKS
LA GUARDIA NY  LGT SNOW  36  30  80 NW18G25   29.91S FOG
RALEIGH NC     PTCLDY    41  30  65 N9        30.02R
ATLANTA GA     PTCLDY    39  26  59 NW12      30.10R
NEW ORLEANS LA PTCLDY    53  32  44 N17       30.18F
OKLAHOMA CITY  PTCLDY    49  23  36 S12       30.04F
ALBUQUERQUE NM PTCLDY    58   7  13 S18G24    29.92S
SALT LAKE CITY CLOUDY    55  25  31 N12       29.91R
LOS ANGELES CA CLOUDY    59  54  83 W10       29.87R
BOISE ID       PTCLDY    50  12  21 N12       29.99R
SEATTLE WA     CLOUDY    52  29  41 SW8       30.12R
$$

*** WEATHER ACROSS MANITOBA...SASKATCHEWAN AND ONTARIO ***
                ***ONTARIO***

CITY           SKY/WX    TMP DP  RH WIND       PRES   REMARKS
GERALDTON      CLEAR      7  -2  66 SW2       30.06S
THUNDER BAY    CLEAR     18   7  62 CALM      30.14R
SIOUX LOOKOUT  CLEAR      3  -2  78 CALM      30.09R
TORONTO        CLEAR     23  10  58 NW17      30.18R WCI   9
BIG TROUT LK   CLEAR      1  -8  66 NW5       30.10R WCI  -8
PICKLE LAKE    NOT AVBL
DRYDEN         CLEAR     16   0  48 E3        30.09R
KENORA         PTCLDY    18   1  49 N2        30.09R
$$
                *** MANITOBA***

CITY           SKY/WX    TMP DP  RH WIND       PRES   REMARKS
BRANDON        CLOUDY    21  18  86 E17       30.03R WCI   7
DAUPHIN        CLEAR     21  10  63 SE9       30.10R WCI  11
ISLAND LAKE    CLEAR     12   1  62 NW2       30.17R
PILOT MOUND      N/A     23  14  68 E16         N/A  WCI  10
THE PAS        CLEAR     14  -6  41 E6        30.18R WCI   5
THOMPSON       CLEAR      3  -4  72 N7        30.24R WCI  -9
WINNIPEG       PTCLDY    18   5  57 NE9       30.12R WCI   6
LYNN LAKE      CLEAR      5  -4  66 N8        30.26R WCI  -8
CHURCHILL      CRYSTALS   0  -4  85 NW15      30.27R WCI -20
GILLAM         CLEAR      0  -6  78 NE5       30.24S WCI -10
$$
                ***SASKATCHEWAN***

CITY           SKY/WX    TMP DP  RH WIND       PRES   REMARKS
ESTEVAN        LGT SNOW  27  23  86 E21G26    29.84R WCI  13
KINDERSLEY     CLOUDY    28  23  80 NE16      29.91R WCI  17
LLOYDMINSTER   LGT SNOW  25  21  86 E8        30.00R WCI  16
PRINCE ALBERT  MOCLDY    21   9  58 E12       30.06R WCI   9
REGINA         PTCLDY    25  21  86 E18G30    29.89R WCI  11
YORKTON        MOCLDY    23  12  63 E13       30.01R WCI  11
N. BATTLEFORD  LGT SNOW  25  21  86 E13       30.03R WCI  13
LA RONGE       CLEAR     16   0  48 NE9       30.16R WCI   4
SASKATOON      FLURRIES  25  21  86 E12G20    30.00R WCI  14
SWIFT CURRENT  MOCLDY    27  25  93 E18G24    29.82R WCI  13
$$
NOTE: THESE ARE AUTOMATED STATIONS WITH LIMITED QUALITY CONTROL
      "FAIR" INDICATES FEW OR NO CLOUDS BELOW 12,000 FEET WITH NO
      SIGNIFICANT WEATHER AND/OR OBSTRUCTIONS TO VISIBILITY.
      SKY/WX - SKY CONDITION AND SIGNIFICANT WEATHER.
      TMP - AIR TEMPERATURE.    DP   - DEWPOINT TEMPERATURE.
      RH  - RELATIVE HUMIDITY.  PRES - PRESSURE.
      HX  - HEAT INDEX.         WCI  - WIND CHILL INDEX.
$



National Weather Service
Disclaimer
Last Modified: August 31, 2005
Privacy Policy